Location: Monrovia
(34.7865°N, 86.7139°W)
Time: 22:03:11
(UTC+00:00)

ATLAS 2A CENTAUR R/B - Pass Details

Date: 14 July 2020
Orbit: 276 x 15882 km, 26.8° (Epoch: 08 August)

Event Time Altitude Azimuth Distance (km) Brightness Sun altitude
Exits shadow 08:14:33 30° 158° (SSE) 1,711 4.0 -24.4°
Drops below altitude 10° 08:17:18 10° 117° (ESE) 2,064 4.8 -24.0°
Sets 08:18:51 0° 105° (ESE) 2,596 5.6 -23.8°
